OpenBCM V1.08-5-g2f4a (Linux)

Packet Radio Mailbox

IZ3LSV

[San Dona' di P. JN]

 Login: GUEST





  
I0OJJ  > KEPS     07.12.24 15:12l 361 Lines 17199 Bytes #166 (0) @ AMSAT
BID : ORB24342.1
Read: GUEST
Subj: 2Line Orbital Elements 24342.AMSAT
Path: IZ3LSV<I0OJJ
Sent: 241207/0430z @:I0OJJ.ITA.EU [Rome] obcm1.08-6-g5b69
From: I0OJJ @ I0OJJ.ITA.EU (Gustavo)
To:   KEPS @ AMSAT
X-Info: This message was generated automatically


QST de W1STR

AMSAT Orbital Elements for Amateur Satellites in TLE Format
From Orbital Analysis Office
New England Sci-Tech STEM Education Center
Natick, MA December 07, 2024
To all radio amateurs


These element sets describe the orbits of various satellites 
in use by the amateur radio community. For details see:
www.amsat.org/keplerian-elements-formats/

A daily update of element sets is available at:
www.amsat.org/tle/daily-bulletin.txt
or without bulletin text:
www.amsat.org/tle/dailytle.txt


AO-07
1 07530U 74089B   24341.52577828 -.00000029  00000-0  10684-3 0  9995
2 07530 101.9898 337.8581 0012364 114.8695   2.5277 12.53683411290635
UO-11
1 14781U 84021B   24341.84867888  .00003844  00000-0  42239-3 0  9999
2 14781  97.7302 306.3214 0006635 218.0532 142.0217 14.88198611195156
AO-27
1 22825U 93061C   24341.59343369  .00000358  00000-0  15437-3 0  9993
2 22825  98.7660  35.9782 0007431 298.0632  61.9799 14.30674613627535
FO-29
1 24278U 96046B   24341.61721426  .00000049  00000-0  82238-4 0  9991
2 24278  98.5876 253.6978 0350965 101.6455 262.4289 13.53224131397757
NOAA-15
1 25338U 98030A   24341.83033752  .00000426  00000-0  19326-3 0  9992
2 25338  98.5538   5.2517 0010358 174.1345 185.9959 14.26818434382058
GO-32
1 25397U 98043D   24341.65080782  .00000328  00000-0  16228-3 0  9995
2 25397  98.9473 311.1711 0002005  50.4907 309.6448 14.24206245371965
ISS
1 25544U 98067A   24341.69696076  .00018424  00000-0  32646-3 0  9996
2 25544  51.6390 180.7176 0006866 308.8096 169.1705 15.50293270485309
NO-44
1 26931U 01043C   24341.44544900  .00000621  00000-0  26443-3 0  9994
2 26931  67.0510 246.4378 0006893 260.8837  99.1485 14.31531054210608
SO-50
1 27607U 02058C   24341.61387887  .00003081  00000-0  41627-3 0  9994
2 27607  64.5556  50.9999 0034038  25.4950 334.7825 14.80458226182046
CO-55
1 27844U 03031E   24341.44432962  .00000985  00000-0  45043-3 0  9991
2 27844  98.6781 346.1343 0009897  11.5129 348.6275 14.23685564112296
CO-57
1 27848U 03031J   24340.95729003  .00000798  00000-0  37325-3 0  9991
2 27848  98.6808 345.7933 0010106  28.8899 331.2837 14.23064982111960
RS-22
1 27939U 03042A   24341.84109802  .00003253  00000-0  53430-3 0  9996
2 27939  98.3077 141.1629 0010798 231.7744 235.3425 14.71327954133658
NOAA-18
1 28654U 05018A   24341.80487395  .00000487  00000-0  28223-3 0  9996
2 28654  98.8616  57.2392 0013260 295.1082  64.8714 14.13444930  7642
CO-58
1 28895U 05043F   24341.35140842  .00004696  00000-0  79781-3 0  9995
2 28895  98.2241 117.8891 0015284 170.1939 189.9568 14.69560640 19721
CO-65
1 32785U 08021C   24341.49336179  .00009798  00000-0  77527-3 0  9996
2 32785  97.7716 306.0390 0012959 122.7318 237.5157 15.00760509901356
AAUSAT2
1 32788U 08021F   24340.91208528  .00064614  00000-0  18406-2 0  9999
2 32788  97.6052 323.6919 0001963  34.7986 325.3386 15.35858198904598
CO-66
1 32791U 08021J   24341.37918469  .00019367  00000-0  11604-2 0  9994
2 32791  97.7112 312.5724 0007701  82.9541 277.2564 15.11005155902456
RS-30
1 32953U 08025A   24341.78227089  .00000037  00000-0  19651-3 0  9999
2 32953  82.5031 342.1333 0020672  88.7054 271.6394 12.43154665750574
PRISM
1 33493U 09002B   24341.63430449  .00074189  00000-0  18866-2 0  9990
2 33493  98.1772  46.0733 0007827   8.5514 351.5861 15.39305840865363
NOAA-19
1 33591U 09005A   24341.78166009  .00000436  00000-0  25671-3 0  9993
2 33591  99.0255  39.2306 0014138 162.2597 197.9071 14.13222113816004
SRMSAT
1 37841U 11058D   24341.72017876  .00000680  00000-0  22606-3 0  9993
2 37841  19.9702 193.1115 0011774 191.4299 247.4137 14.11304074679183
RS-40
1 38735U 12041C   24341.64006630  .00000043  00000-0  23907-3 0  9994
2 38735  82.4774  62.3504 0017448 199.9509 160.0890 12.42621598560595
ZACUBE-1
1 39417U 13066B   24341.86555818  .00010565  00000-0  99534-3 0  9990
2 39417  97.7572 294.5917 0045794 310.1269  49.5942 14.93204704597313
Delfi-N3xt
1 39428U 13066N   24341.74684548  .00012600  00000-0  14245-2 0  9999
2 39428  97.8362 256.0658 0090039 247.2423 111.9258 14.83675356591808
GOMX-1
1 39430U 13066Q   24341.70861285  .00003864  00000-0  61935-3 0  9994
2 39430  97.7040 205.6048 0137264  63.5908 297.9309 14.66090337588309
LO-74
1 39440U 13066AA  24341.82045544  .00008264  00000-0  89451-3 0  9992
2 39440  97.8313 282.2850 0067801  68.9285 291.9163 14.86807441595159
AO-73
1 39444U 13066AE  24341.63217811  .00014725  00000-0  12491-2 0  9991
2 39444  97.7422 298.0653 0041189 287.5725  72.1000 14.97370156595865
DTUSAT-2
1 40030U 14033W   24341.78676423  .00013576  00000-0  99914-3 0  9992
2 40030  98.0325 299.6034 0009628 335.0522  25.0236 15.03467659569097
EO-80
1 40032U 14033Y   24341.61712969  .00013345  00000-0  98065-3 0  9992
2 40032  98.0241 299.3290 0006430 266.0644  93.9846 15.03548436568535
XW-2C
1 40906U 15049H   24341.80062323  .00136032  00000-0  11691-2 0  9991
2 40906  97.4567   5.5522 0005950  52.1515 308.0284 15.68900407511255
LILACSAT-2
1 40908U 15049K   24341.76482991  .00016402  00000-0  52457-3 0  9999
2 40908  97.5197 352.3860 0012923  98.6701 261.6005 15.32425729509864
IO-86
1 40931U 15052B   24337.09180034  .00002217  00000-0  20975-3 0  9992
2 40931   5.9986 232.5457 0013173 302.5393  57.3463 14.78392648496340
ChubuSat-2
1 41338U 16012B   24341.47802546  .00010367  00000-0  57983-3 0  9991
2 41338  31.0017 358.9830 0010899 171.8343 188.2475 15.12152536483666
ChubuSat-3
1 41339U 16012C   24341.44293748  .00009098  00000-0  52295-3 0  9997
2 41339  31.0085 359.0869 0010987 173.4601 186.6182 15.11135452483629
Horyu-4
1 41340U 16012D   24341.55006583  .00027713  00000-0  10580-2 0  9994
2 41340  31.0006 285.5953 0009557 291.5199  68.4424 15.25424532484404
Lapan A3
1 41603U 16040E   24341.79322612  .00006156  00000-0  23019-3 0  9997
2 41603  97.1395 347.9295 0010645 199.0194 161.0650 15.27629120469551
Pratham
1 41783U 16059A   24341.82998733  .00001929  00000-0  35994-3 0  9991
2 41783  97.8295 353.0922 0031715 190.0257 170.0319 14.65744166437829
CAS-2T
1 41847U 16066G   24341.61954967  .00002340  00000-0  34379-3 0  9992
2 41847  98.4432  51.6135 0349991  17.7536 343.5530 14.42508529424341
CAS-4B
1 42759U 17034B   24341.65693170  .00042783  00000-0  10197-2 0  9997
2 42759  43.0150 324.0055 0012866  86.6439 273.5889 15.40797666413887
CAS-4A
1 42761U 17034D   24341.37952440  .00043774  00000-0  10332-2 0  9999
2 42761  43.0186 323.7529 0013695  93.9261 266.3162 15.41070549413852
D-SAT
1 42794U 17036AF  24341.44793856  .00012702  00000-0  79048-3 0  9996
2 42794  97.4957 317.6147 0099239 282.3789  76.6344 15.05657070406623
TechnoSat
1 42829U 17042E   24341.74144572  .00006905  00000-0  56854-3 0  9998
2 42829  97.3858 153.5288 0011993 211.0028 149.0489 14.99329205403002
AO-91
1 43017U 17073E   24341.62305705  .00012343  00000-0  68270-3 0  9994
2 43017  97.5482 211.3800 0194486  74.4286 287.8312 14.99219953381443
S-Net D
1 43186U 18014G   24341.31262221  .00009227  00000-0  59664-3 0  9992
2 43186  97.5761 240.3672 0011135 130.3515 229.8688 15.08369454374419
S-Net B
1 43187U 18014H   24341.64770172  .00009023  00000-0  58356-3 0  9999
2 43187  97.5768 240.6593 0012022 125.9065 234.3281 15.08362181374463
S-Net A
1 43188U 18014J   24341.51256082  .00009169  00000-0  59268-3 0  9999
2 43188  97.5773 240.6541 0011872 126.8436 233.3882 15.08376311374441
S-Net C
1 43189U 18014K   24341.45072205  .00009443  00000-0  61028-3 0  9998
2 43189  97.5791 240.5746 0013718 121.5071 238.7500 15.08356304372989
Ten-Koh
1 43677U 18084G   24341.44235292  .00006321  00000-0  53224-3 0  9994
2 43677  98.0789 140.5658 0013546 165.4889 194.6725 14.98526023332494
PO-101
1 43678U 18084H   24341.77718601  .00003126  00000-0  27843-3 0  9999
2 43678  98.0867 145.2214 0008636 174.1339 185.9985 14.96794260332728
QO-100
1 43700U 18090A   24341.59612491  .00000162  00000-0  00000-0 0  9992
2 43700   0.0144  22.4883 0002017 271.6619  22.1331  1.00271603 22088
MinXSS-2
1 43758U 18099A   24341.58525605  .00021909  00000-0  11104-2 0  9994
2 43758  97.5311  41.9295 0015199  84.6700 275.6267 15.16878027328840
AO-95
1 43770U 18099N   24341.13038050  .00014665  00000-0  86637-3 0  9997
2 43770  97.5214  35.7001 0013154 130.6605 229.5771 15.11527584328489
RANGE-B
1 43772U 18099Q   24341.64138145  .00027253  00000-0  12923-2 0  9994
2 43772  97.5011  40.6571 0004819  39.5991 320.5595 15.19247523328819
RANGE-A
1 43773U 18099R   24341.55990802  .00009842  00000-0  67878-3 0  9995
2 43773  97.4774  29.4074 0013264 104.9564 255.3132 15.05936433328345
MOVE-II
1 43780U 18099Y   24341.14623983  .00052623  00000-0  16718-2 0  9992
2 43780  97.4960  44.0392 0005153  95.6399 264.5430 15.32448711329099
SNUSat 2
1 43782U 18099AA  24341.61315256  .00013286  00000-0  82257-3 0  9991
2 43782  97.4899  34.3038 0014757  74.5480 285.7378 15.09825999328544
SnugLite
1 43784U 18099AC  24341.39565975  .00014935  00000-0  87702-3 0  9995
2 43784  97.4711  33.4055 0005318  83.0226 277.1609 15.11799882328607
ITASat 1
1 43786U 18099AE  24341.12025744  .00011398  00000-0  72692-3 0  9995
2 43786  97.4858  33.7923 0016805 123.0146 237.2700 15.08749662328456
EAGLET 1
1 43790U 18099AJ  24341.12164103  .00008149  00000-0  55948-3 0  9998
2 43790  97.5047  34.1947 0014097 103.7110 256.5688 15.06152242328123
ESEO
1 43792U 18099AL  24341.59969345  .00003866  00000-0  30462-3 0  9997
2 43792  97.4841  30.1875 0010092  70.5182 289.7132 15.01305814328057
CSIM
1 43793U 18099AM  24341.44671078  .00057132  00000-0  18367-2 0  9999
2 43793  97.5110  46.1933 0009073  70.1228 290.0990 15.32019279328984
